Progress Software PE Ratio 2010-2023 | PRGS

Current and historical p/e ratio for Progress Software (PRGS) from 2010 to 2023. The price to earnings ratio is calculated by taking the latest closing price and dividing it by the most recent earnings per share (EPS) number. The PE ratio is a simple way to assess whether a stock is over or under valued and is the most widely used valuation measure. Progress Software PE ratio as of February 22, 2024 is 15.10.

Please refer to the Stock Price Adjustment Guide for more information on our historical prices.

Progress Software PE Ratio Historical Data
Date Stock Price TTM Net EPS PE Ratio
2024-02-22 54.80 35.13
2023-11-30 53.86 $1.56 34.53
2023-08-31 60.64 $1.76 34.46
2023-05-31 59.63 $1.84 32.41
2023-02-28 56.92 $2.23 25.53
2022-11-30 52.68 $2.16 24.39
2022-08-31 47.40 $1.95 24.31
2022-05-31 47.40 $2.15 22.05
2022-02-28 43.10 $1.79 24.08
2021-11-30 47.18 $1.75 26.96
2021-08-31 45.18 $1.81 24.96
2021-05-31 43.08 $1.64 26.27
2021-02-28 40.96 $1.71 23.95
2020-11-30 38.45 $1.75 21.97
2020-08-31 36.18 $1.25 28.94
2020-05-31 38.41 $1.02 37.65
2020-02-29 35.30 $0.83 42.54
2019-11-30 39.60 $0.78 50.77
2019-08-31 35.47 $1.26 28.15
2019-05-31 38.30 $1.29 29.69
2018-11-30 32.62 $1.38 23.63
2018-08-31 37.80 $1.31 28.86
2018-05-31 34.86 $1.15 30.32
2018-02-28 42.98 $1.05 40.93
2017-11-30 37.80 $0.99 38.18
2019-02-28 34.26 $0.64 53.53
2017-08-31 30.60 $-1.09 0.00
2017-05-31 26.51 $-1.17 0.00
2017-02-28 25.92 $-1.24 0.00
2016-11-30 26.61 $-1.17 0.00
2016-08-31 26.00 $0.16 162.51
2016-05-31 23.60 $-0.07 0.00
2016-02-29 22.60 $-0.10 0.00
2015-11-30 21.50 $-0.18 0.00
2015-08-31 24.28 $0.29 83.73
2015-05-31 23.60 $0.59 40.00
2015-02-28 24.50 $0.73 33.57
2014-11-30 23.12 $0.96 24.08
2014-08-31 20.76 $0.97 21.40
2014-05-31 19.47 $1.21 16.09
2014-02-28 22.35 $1.03 21.70
2013-11-30 23.61 $1.35 17.49
2013-08-31 21.92 $1.63 13.45
2013-05-31 21.07 $1.26 16.72
2013-02-28 20.18 $1.16 17.40
2012-11-30 18.02 $0.81 22.25
2012-08-31 17.24 $0.37 46.58
2012-05-31 17.23 $0.54 31.90
2011-11-30 18.26 $0.86 21.23
2011-08-31 18.66 $0.99 18.79
2011-05-31 24.26 $0.98 24.67
2011-02-28 26.31 $0.86 30.48
2010-11-30 23.01 $0.86 26.76
2012-02-29 20.81 $0.53 39.02
2010-08-31 15.96 $0.68 23.47
2010-05-31 19.08 $0.63 30.45
2010-02-28 16.74 $0.45 36.93
2009-11-30 14.39 $0.53 27.32
Sector Industry Market Cap Revenue
Computer and Technology Computer Software $2.399B $0.694B
Progress offers the leading platform for developing and deploying mission-critical business applications. Progress empowers enterprises and ISVs to build and deliver cognitive-first applications that harness big data to derive business insights and competitive advantage. Progress offers leading technologies for easily building powerful user interfaces across any type of device, a reliable, scalable and secure backend platform to deploy modern applications, leading data connectivity to all sources, and award-winning predictive analytics that brings the power of machine learning to any organization.
Stock Name Country Market Cap PE Ratio
Microsoft (MSFT) United States $2988.373B 36.36
Oracle (ORCL) United States $297.323B 25.09
Salesforce (CRM) United States $274.476B 52.41
Adobe (ADBE) United States $243.411B 42.10
Intuit (INTU) United States $178.652B 61.43
Synopsys (SNPS) United States $82.616B 59.80
Cadence Design Systems (CDNS) United States $79.156B 72.15
Dassault Systemes SA (DASTY) France $61.830B 40.57
Autodesk (ADSK) United States $54.018B 54.19
ANSYS (ANSS) United States $28.549B 48.40
PTC (PTC) United States $21.115B 62.19
SS&C Technologies Holdings (SSNC) United States $15.796B 15.53
Manhattan Associates (MANH) United States $14.873B 85.67
Open Text (OTEX) Canada $10.349B 11.12
MicroStrategy (MSTR) United States $9.768B 22.75
Descartes Systems Group (DSGX) Canada $7.237B 64.94
Trend Micro (TMICY) Japan $6.669B 59.17
Pegasystems (PEGA) United States $5.279B 72.32
CommVault Systems (CVLT) United States $4.034B 72.18
Blackbaud (BLKB) United States $3.647B 32.41
ACI Worldwide (ACIW) United States $3.295B 20.07
Verint Systems (VRNT) United States $1.916B 20.01
Sapiens (SPNS) Israel $1.681B 23.82
PROS Holdings (PRO) United States $1.600B 0.00
BlackBerry (BB) Canada $1.596B 0.00
Simulations Plus (SLP) United States $0.823B 60.59
Rand Worldwide (RWWI) United States $0.568B 0.00
Magic Software Enterprises (MGIC) Israel $0.526B 10.40
American Software (AMSWA) United States $0.370B 34.90
Canaan (CAN) China $0.332B 0.00
OptimizeRx (OPRX) United States $0.278B 0.00
Rigetti Computing (RGTI) United States $0.214B 0.00
Smith Micro Software (SMSI) United States $0.057B 0.00
Icad Inc (ICAD) United States $0.036B 0.00
NetSol Technologies (NTWK) United States $0.033B 0.00
Wetouch Technology (WETH) $0.030B 0.00
Neonode (NEON) Sweden $0.024B 0.00
Hanryu Holdings (HRYU) South Korea $0.023B 0.00
GSE Systems (GVP) United States $0.006B 0.00
SAP SE (SAP) Germany $0.000B 46.42